Weather in Mulino

Russia / Zabaykalsky Krai     50°32′34″N   118°04′25″E
temp.,
°C
wind,
m/s
gust,
m/s
humid.,
%
clouds,
%
prec.,
mm/h
press.,
hPa
HPBL,
m
27 february, sat
sat2700:00−13ne2296100 0.1 100931
03:00−12e2296100 0.1 100523
06:00−10n2396100 0.9 100494
09:00−9nw61290100 2.9 1007712
12:00−10wnw71276100 0.0 1013938
15:00−10wnw81177100 0.0 10171164
18:00−13w6118299 0.0 1021356
21:00−18w468755 0.0 102597
28 february, sun
sun2800:00−21w33890 0.0 102950
03:00−24w23900 0.0 103224
06:00−27wsw33860 0.0 103522
09:00−28w33860 0.0 103845
12:00−21w47760 0.0 1038477
15:00−18w57730 0.0 1037755
18:00−20w410800 0.0 1037265
21:00−26w22820 0.0 104120
1 march, mon
mon100:00−28wsw22870 0.0 104219
03:00−29wsw22890 0.0 104319
06:00−30w12880 0.0 104119
09:00−28wsw12820 0.0 104119
12:00−21wsw24750 0.0 1039282
15:00−18sw47770 0.0 1035538
18:00−20sw228921 0.0 103328
21:00−23sw119156 0.0 103420
2 march, tue
tue200:00−24sse119698 0.0 103220
03:00−26sse1110092 0.0 103020
06:00−26ese12100100 0.0 102819
09:00−23e1298100 0.1 102692
12:00−20se2392100 0.0 1023344
15:00−18sse2388100 0.1 1020420
18:00−20sse2295100 0.0 101920
21:00−25sse1110073 0.0 101920
3 march, wed
wed300:00−24ssw1110065 0.0 101720
03:00−20sw119783 0.0 101434
06:00−20wsw129898 0.1 101220
09:00−20wsw129985 0.1 101220
12:00−13wsw238856 0.0 1010250
15:00−7w6117355 0.0 10091236
18:00−9wsw4993100 0.1 1009352
21:00−13nw2389100 0.5 101229